Location: Duac?
(36.9744°N, 30.6500°E)
Time: 06:39:45
(UTC+00:00)

Cosmos 1758 Rocket - Pass Details

Date: 05 August 2024
Orbit: 599 x 630 km, 82.5° (Epoch: 10 September)

Event Time Altitude Azimuth Distance (km) Brightness Sun altitude
Exits shadow 18:33:39 28° 94° (E) 1,137 4.4 -17.1°
Maximum altitude 18:33:48 28° 90° (E) 1,136 4.5 -17.1°
Drops below altitude 10° 18:37:31 10° 31° (NNE) 1,967 6.2 -17.7°
Sets 18:39:58 0° 20° (NNE) 2,881 7.2 -18.1°
